FWG15P LGSA-HECA

Flight info

Callsign FWG15P
Flight time 1h 15m
Altitude 39000
Route BAVES UJ65 SIT UL612 KUMBI L612 BLT A16 MERPI
Aircraft A20N/M-SDE2E3FGHIRWXY/LB1

Departure

Time 2026-05-04 18:26
Airport Chania International Airport (LGSA)

Arrival

Time 2026-05-04 19:42
Airport Cairo International Airport (HECA)
Time Latitude Longitude Altitude Speed Heading
2026-05-04 17:49 35.53792 24.14300 423 ft 0 kts 22°
2026-05-04 18:14 35.53788 24.14298 423 ft 2 kts 23°
2026-05-04 18:15 35.53761 24.14284 424 ft 2 kts 22°
2026-05-04 18:15 35.53733 24.14271 426 ft 2 kts 22°
2026-05-04 18:15 35.53722 24.14261 426 ft 2 kts 70°
2026-05-04 18:16 35.53723 24.14243 426 ft 2 kts 121°
2026-05-04 18:16 35.53729 24.14227 426 ft 2 kts 108°
2026-05-04 18:16 35.53735 24.14210 426 ft 2 kts 112°
2026-05-04 18:17 35.53740 24.14194 426 ft 0 kts 111°
2026-05-04 18:18 35.53740 24.14195 426 ft 0 kts 112°
2026-05-04 18:18 35.53732 24.14220 426 ft 7 kts 109°
2026-05-04 18:19 35.53691 24.14344 428 ft 8 kts 113°
2026-05-04 18:19 35.53647 24.14363 430 ft 6 kts 196°
2026-05-04 18:19 35.53582 24.14341 434 ft 10 kts 171°
2026-05-04 18:20 35.53543 24.14404 436 ft 9 kts 111°
2026-05-04 18:20 35.53515 24.14492 438 ft 11 kts 111°
2026-05-04 18:20 35.53485 24.14585 439 ft 12 kts 111°
2026-05-04 18:20 35.53452 24.14685 441 ft 12 kts 111°
2026-05-04 18:21 35.53422 24.14778 444 ft 11 kts 112°
2026-05-04 18:21 35.53393 24.14866 447 ft 12 kts 111°
2026-05-04 18:21 35.53357 24.14979 449 ft 15 kts 111°
2026-05-04 18:21 35.53317 24.15103 451 ft 16 kts 111°
2026-05-04 18:22 35.53274 24.15236 453 ft 17 kts 111°
2026-05-04 18:22 35.53226 24.15380 455 ft 18 kts 111°
2026-05-04 18:22 35.53177 24.15533 457 ft 19 kts 111°
2026-05-04 18:22 35.53128 24.15684 462 ft 18 kts 111°
2026-05-04 18:23 35.53077 24.15838 464 ft 19 kts 112°
2026-05-04 18:23 35.53025 24.15998 466 ft 20 kts 111°
2026-05-04 18:23 35.52973 24.16158 472 ft 19 kts 111°
2026-05-04 18:23 35.52924 24.16311 476 ft 19 kts 112°
2026-05-04 18:24 35.52875 24.16459 481 ft 18 kts 111°
2026-05-04 18:24 35.52828 24.16606 484 ft 19 kts 111°
2026-05-04 18:24 35.52780 24.16754 485 ft 18 kts 112°
2026-05-04 18:24 35.52739 24.16865 486 ft 13 kts 131°
2026-05-04 18:25 35.52696 24.16878 488 ft 3 kts 185°
2026-05-04 18:25 35.52661 24.16865 490 ft 8 kts 203°
2026-05-04 18:25 35.52609 24.16835 493 ft 9 kts 211°
2026-05-04 18:25 35.52596 24.16755 494 ft 11 kts 288°
2026-05-04 18:26 35.52639 24.16623 493 ft 40 kts 291°
2026-05-04 18:26 35.52854 24.15958 476 ft 124 kts 291°
2026-05-04 18:26 35.53248 24.14792 847 ft 157 kts 292°
2026-05-04 18:26 35.53654 24.13594 1752 ft 155 kts 291°
2026-05-04 18:27 35.54039 24.12394 2621 ft 158 kts 292°
2026-05-04 18:27 35.54459 24.11105 3243 ft 173 kts 296°
2026-05-04 18:27 35.55276 24.09997 3814 ft 188 kts 334°
2026-05-04 18:27 35.56610 24.09803 4422 ft 207 kts
2026-05-04 18:28 35.57888 24.10704 5098 ft 228 kts 49°
2026-05-04 18:28 35.58409 24.12505 6203 ft 236 kts 88°
2026-05-04 18:28 35.57883 24.14379 7254 ft 245 kts 126°
2026-05-04 18:28 35.56524 24.15640 8158 ft 253 kts 153°
2026-05-04 18:29 35.54881 24.16450 9010 ft 260 kts 159°
2026-05-04 18:29 35.53192 24.17256 9863 ft 263 kts 148°
2026-05-04 18:29 35.51902 24.18766 10631 ft 261 kts 112°
2026-05-04 18:29 35.51332 24.20877 11221 ft 268 kts 95°
2026-05-04 18:30 35.50704 24.25664 12263 ft 303 kts 94°
2026-05-04 18:30 35.50327 24.28280 12748 ft 322 kts 95°
2026-05-04 18:30 35.49887 24.31053 13208 ft 341 kts 97°
2026-05-04 18:31 35.49395 24.33976 13644 ft 359 kts 97°
2026-05-04 18:31 35.48867 24.37004 14278 ft 369 kts 97°
2026-05-04 18:31 35.48318 24.40098 15034 ft 375 kts 97°
2026-05-04 18:31 35.47758 24.43231 15751 ft 381 kts 97°
2026-05-04 18:32 35.47187 24.46424 16429 ft 388 kts 97°
2026-05-04 18:32 35.46609 24.49665 17114 ft 394 kts 97°
2026-05-04 18:32 35.46020 24.52957 17778 ft 400 kts 96°
2026-05-04 18:32 35.45424 24.56294 18449 ft 405 kts 96°
2026-05-04 18:33 35.44820 24.59667 19162 ft 408 kts 96°
2026-05-04 18:33 35.44210 24.63060 19852 ft 411 kts 96°
2026-05-04 18:33 35.43592 24.66496 20465 ft 417 kts 97°
2026-05-04 18:33 35.42964 24.69983 21030 ft 423 kts 97°
2026-05-04 18:34 35.42330 24.73502 21664 ft 427 kts 97°
2026-05-04 18:34 35.41685 24.77058 22261 ft 431 kts 97°
2026-05-04 18:34 35.41030 24.80663 22780 ft 438 kts 97°
2026-05-04 18:34 35.40369 24.84305 23352 ft 442 kts 97°
2026-05-04 18:35 35.39697 24.87982 23962 ft 445 kts 97°
2026-05-04 18:35 35.39017 24.91699 24490 ft 451 kts 97°
2026-05-04 18:35 35.38330 24.95446 25018 ft 455 kts 97°
2026-05-04 18:35 35.37635 24.99234 25529 ft 460 kts 97°
2026-05-04 18:36 35.36930 25.03065 26053 ft 463 kts 97°
2026-05-04 18:36 35.36222 25.06898 26666 ft 464 kts 97°
2026-05-04 18:36 35.35509 25.10759 27170 ft 468 kts 97°
2026-05-04 18:36 35.34787 25.14668 27607 ft 473 kts 97°
2026-05-04 18:37 35.34005 25.18587 28023 ft 479 kts 100°
2026-05-04 18:37 35.33038 25.22514 28424 ft 485 kts 103°
2026-05-04 18:37 35.31993 25.26447 28855 ft 489 kts 103°
2026-05-04 18:37 35.30903 25.30480 29241 ft 493 kts 103°
2026-05-04 18:38 35.29818 25.34496 29576 ft 497 kts 103°
2026-05-04 18:38 35.28731 25.38521 29948 ft 500 kts 103°
2026-05-04 18:38 35.27642 25.42554 30319 ft 502 kts 103°
2026-05-04 18:38 35.26550 25.46611 30682 ft 504 kts 103°
2026-05-04 18:39 35.25448 25.50702 30986 ft 507 kts 103°
2026-05-04 18:39 35.24343 25.54800 31296 ft 509 kts 103°
2026-05-04 18:39 35.23231 25.58916 31582 ft 511 kts 103°
2026-05-04 18:39 35.22113 25.63044 31886 ft 513 kts 103°
2026-05-04 18:40 35.20994 25.67167 32251 ft 512 kts 104°
2026-05-04 18:40 35.19877 25.71284 32608 ft 511 kts 104°
2026-05-04 18:40 35.18762 25.75391 32919 ft 512 kts 104°
2026-05-04 18:40 35.17644 25.79511 33211 ft 512 kts 105°
2026-05-04 18:41 35.16520 25.83638 33546 ft 512 kts 105°
2026-05-04 18:41 35.15397 25.87758 33861 ft 512 kts 105°
2026-05-04 18:41 35.14272 25.91869 34168 ft 511 kts 105°
2026-05-04 18:41 35.13147 25.95979 34427 ft 512 kts 105°
2026-05-04 18:42 35.12020 26.00083 34697 ft 511 kts 105°
2026-05-04 18:42 35.10889 26.04206 34970 ft 511 kts 105°
2026-05-04 18:42 35.09762 26.08306 35209 ft 511 kts 105°
2026-05-04 18:42 35.08628 26.12405 35468 ft 511 kts 106°
2026-05-04 18:43 35.07360 26.16431 35778 ft 510 kts 110°
2026-05-04 18:43 35.05886 26.20360 36107 ft 510 kts 115°
2026-05-04 18:43 35.04203 26.24152 36405 ft 510 kts 119°
2026-05-04 18:43 35.02352 26.27832 36694 ft 509 kts 121°
2026-05-04 18:44 35.00469 26.31478 36933 ft 509 kts 121°
2026-05-04 18:44 34.99211 26.33902 37117 ft 509 kts 121°
2026-05-04 18:44 34.96702 26.38747 37414 ft 509 kts 121°
2026-05-04 18:44 34.94819 26.42396 37600 ft 510 kts 121°
2026-05-04 18:45 34.92937 26.46046 37792 ft 511 kts 121°
2026-05-04 18:45 34.91052 26.49705 37960 ft 512 kts 121°
2026-05-04 18:45 34.89164 26.53366 38121 ft 512 kts 121°
2026-05-04 18:45 34.87264 26.57053 38270 ft 513 kts 121°
2026-05-04 18:46 34.85335 26.60792 38428 ft 514 kts 121°
2026-05-04 18:46 34.83436 26.64475 38576 ft 514 kts 121°
2026-05-04 18:46 34.81541 26.68144 38719 ft 514 kts 122°
2026-05-04 18:46 34.79635 26.71824 38825 ft 515 kts 122°
2026-05-04 18:47 34.77697 26.75565 38934 ft 516 kts 122°
2026-05-04 18:47 34.75762 26.79295 39055 ft 516 kts 122°
2026-05-04 18:47 34.73826 26.83024 39088 ft 517 kts 122°
2026-05-04 18:48 34.69989 26.90403 39096 ft 517 kts 122°
2026-05-04 18:48 34.66155 26.97758 39095 ft 517 kts 122°
2026-05-04 18:49 34.62309 27.05126 39088 ft 517 kts 122°
2026-05-04 18:49 34.58470 27.12468 39086 ft 516 kts 122°
2026-05-04 18:50 34.54621 27.19807 39091 ft 517 kts 123°
2026-05-04 18:50 34.50769 27.27138 39085 ft 517 kts 123°
2026-05-04 18:51 34.46906 27.34477 39079 ft 517 kts 123°
2026-05-04 18:51 34.43045 27.41797 39081 ft 517 kts 123°
2026-05-04 18:52 34.39176 27.49115 39080 ft 518 kts 123°
2026-05-04 18:52 34.35299 27.56434 39074 ft 518 kts 123°
2026-05-04 18:53 34.31417 27.63749 39081 ft 518 kts 123°
2026-05-04 18:53 34.27528 27.71059 39086 ft 518 kts 124°
2026-05-04 18:54 34.23637 27.78363 39081 ft 518 kts 124°
2026-05-04 18:54 34.19742 27.85653 39080 ft 517 kts 124°
2026-05-04 18:55 34.15847 27.92932 39075 ft 517 kts 124°
2026-05-04 18:55 34.10006 28.03824 39080 ft 516 kts 124°
2026-05-04 18:56 34.06110 28.11066 39072 ft 516 kts 124°
2026-05-04 18:56 34.02210 28.18306 39069 ft 516 kts 124°
2026-05-04 18:57 33.98299 28.25546 39070 ft 517 kts 124°
2026-05-04 18:57 33.94386 28.32777 39064 ft 517 kts 124°
2026-05-04 18:58 33.90464 28.40009 39066 ft 518 kts 124°
2026-05-04 18:58 33.86532 28.47251 39060 ft 519 kts 124°
2026-05-04 18:59 33.82594 28.54489 39058 ft 518 kts 124°
2026-05-04 18:59 33.78654 28.61712 39056 ft 518 kts 125°
2026-05-04 19:00 33.74709 28.68920 39053 ft 517 kts 127°
2026-05-04 19:00 33.70365 28.75743 39055 ft 514 kts 134°
2026-05-04 19:01 33.65380 28.81840 39048 ft 511 kts 141°
2026-05-04 19:01 33.60174 28.87634 39049 ft 512 kts 141°
2026-05-04 19:02 33.54965 28.93431 39051 ft 512 kts 141°
2026-05-04 19:02 33.49763 28.99241 39055 ft 511 kts 141°
2026-05-04 19:03 33.44551 29.05056 39052 ft 511 kts 141°
2026-05-04 19:03 33.39353 29.10850 39052 ft 511 kts 141°
2026-05-04 19:04 33.34156 29.16633 39053 ft 511 kts 141°
2026-05-04 19:04 33.28962 29.22406 39053 ft 511 kts 141°
2026-05-04 19:05 33.23765 29.28166 39055 ft 510 kts 141°
2026-05-04 19:05 33.18569 29.33919 39059 ft 510 kts 141°
2026-05-04 19:06 33.13359 29.39677 39059 ft 510 kts 141°
2026-05-04 19:06 33.08155 29.45421 39057 ft 510 kts 142°
2026-05-04 19:07 33.02962 29.51141 39059 ft 509 kts 142°
2026-05-04 19:07 32.97762 29.56858 39059 ft 510 kts 141°
2026-05-04 19:08 32.92547 29.62583 39061 ft 510 kts 141°
2026-05-04 19:08 32.87319 29.68315 39060 ft 510 kts 142°
2026-05-04 19:09 32.82111 29.74017 39061 ft 509 kts 142°
2026-05-04 19:09 32.76906 29.79701 39050 ft 509 kts 142°
2026-05-04 19:10 32.71699 29.85380 39064 ft 509 kts 143°
2026-05-04 19:10 32.66482 29.91058 39062 ft 509 kts 143°
2026-05-04 19:11 32.61267 29.96724 39061 ft 509 kts 142°
2026-05-04 19:11 32.56038 30.02404 39059 ft 509 kts 143°
2026-05-04 19:12 32.48211 30.10881 39060 ft 508 kts 143°
2026-05-04 19:13 32.42995 30.16503 39067 ft 508 kts 143°
2026-05-04 19:13 32.37777 30.22118 39073 ft 507 kts 143°
2026-05-04 19:14 32.32564 30.27720 39069 ft 507 kts 143°
2026-05-04 19:14 32.27335 30.33326 39064 ft 509 kts 143°
2026-05-04 19:15 32.22099 30.38938 39062 ft 509 kts 144°
2026-05-04 19:15 32.16865 30.44536 39064 ft 508 kts 144°
2026-05-04 19:16 32.11637 30.50123 39077 ft 507 kts 144°
2026-05-04 19:16 32.09025 30.52908 38765 ft 510 kts 144°
2026-05-04 19:16 32.06401 30.55702 38063 ft 511 kts 144°
2026-05-04 19:16 32.03770 30.58501 37359 ft 511 kts 144°
2026-05-04 19:17 32.01142 30.61296 36651 ft 511 kts 144°
2026-05-04 19:17 31.98505 30.64097 35877 ft 513 kts 143°
2026-05-04 19:17 31.95849 30.66917 35181 ft 515 kts 144°
2026-05-04 19:17 31.93194 30.69735 34388 ft 518 kts 144°
2026-05-04 19:18 31.90523 30.72568 33431 ft 518 kts 144°
2026-05-04 19:18 31.87865 30.75392 32491 ft 505 kts 144°
2026-05-04 19:18 31.85276 30.78143 31638 ft 503 kts 144°
2026-05-04 19:18 31.82690 30.80879 30982 ft 499 kts 144°
2026-05-04 19:19 31.80127 30.83589 30485 ft 495 kts 144°
2026-05-04 19:19 31.77579 30.86278 29974 ft 491 kts 144°
2026-05-04 19:19 31.75055 30.88944 29464 ft 486 kts 144°
2026-05-04 19:19 31.72556 30.91580 28945 ft 482 kts 144°
2026-05-04 19:20 31.70076 30.94192 28428 ft 478 kts 144°
2026-05-04 19:20 31.67620 30.96781 27916 ft 474 kts 144°
2026-05-04 19:20 31.65180 30.99351 27404 ft 469 kts 144°
2026-05-04 19:20 31.62758 31.01897 26895 ft 465 kts 144°
2026-05-04 19:21 31.60361 31.04415 26389 ft 461 kts 144°
2026-05-04 19:21 31.57983 31.06911 25882 ft 458 kts 144°
2026-05-04 19:21 31.55619 31.09384 25376 ft 453 kts 146°
2026-05-04 19:21 31.53084 31.11454 24854 ft 437 kts 160°
2026-05-04 19:22 31.50337 31.12759 24368 ft 418 kts 173°
2026-05-04 19:22 31.47533 31.13419 23897 ft 407 kts 180°
2026-05-04 19:22 31.44747 31.13908 23431 ft 402 kts 181°
2026-05-04 19:22 31.41992 31.14379 22966 ft 399 kts 181°
2026-05-04 19:23 31.39255 31.14859 22509 ft 397 kts 180°
2026-05-04 19:23 31.36531 31.15350 22012 ft 396 kts 180°
2026-05-04 19:23 31.33818 31.15847 21507 ft 395 kts 180°
2026-05-04 19:23 31.31108 31.16351 20997 ft 394 kts 180°
2026-05-04 19:24 31.28411 31.16854 20485 ft 392 kts 179°
2026-05-04 19:24 31.25723 31.17357 19986 ft 390 kts 179°
2026-05-04 19:24 31.23051 31.17859 19493 ft 389 kts 179°
2026-05-04 19:24 31.20386 31.18356 18959 ft 388 kts 179°
2026-05-04 19:25 31.17729 31.18851 18434 ft 387 kts 179°
2026-05-04 19:25 31.15072 31.19345 17904 ft 386 kts 179°
2026-05-04 19:25 31.12435 31.19836 17404 ft 384 kts 179°
2026-05-04 19:25 31.09802 31.20327 16901 ft 382 kts 179°
2026-05-04 19:26 31.07180 31.20814 16383 ft 380 kts 179°
2026-05-04 19:26 31.04573 31.21297 15869 ft 379 kts 178°
2026-05-04 19:26 31.01982 31.21779 15365 ft 376 kts 178°
2026-05-04 19:26 30.99403 31.22258 14873 ft 374 kts 178°
2026-05-04 19:27 30.96840 31.22734 14365 ft 372 kts 178°
2026-05-04 19:27 30.94294 31.23205 13865 ft 370 kts 178°
2026-05-04 19:27 30.91760 31.23677 13365 ft 367 kts 177°
2026-05-04 19:27 30.89239 31.24144 12882 ft 365 kts 177°
2026-05-04 19:28 30.86744 31.24606 12403 ft 362 kts 177°
2026-05-04 19:28 30.84264 31.25065 11914 ft 360 kts 176°
2026-05-04 19:28 30.81798 31.25521 11430 ft 358 kts 176°
2026-05-04 19:28 30.79350 31.25973 10948 ft 355 kts 176°
2026-05-04 19:29 30.76927 31.26422 10575 ft 348 kts 176°
2026-05-04 19:29 30.74572 31.26862 10405 ft 335 kts 176°
2026-05-04 19:29 30.72315 31.27284 10252 ft 322 kts 176°
2026-05-04 19:29 30.70146 31.27687 10117 ft 309 kts 176°
2026-05-04 19:30 30.68042 31.28076 9803 ft 305 kts 176°
2026-05-04 19:30 30.65955 31.28455 9422 ft 302 kts 176°
2026-05-04 19:30 30.63885 31.28834 9066 ft 299 kts 176°
2026-05-04 19:30 30.61838 31.29208 8725 ft 296 kts 175°
2026-05-04 19:31 30.59811 31.29581 8383 ft 294 kts 175°
2026-05-04 19:31 30.57800 31.29950 8035 ft 291 kts 175°
2026-05-04 19:31 30.55810 31.30317 7699 ft 288 kts 175°
2026-05-04 19:31 30.53838 31.30680 7354 ft 286 kts 175°
2026-05-04 19:32 30.51882 31.31040 7038 ft 282 kts 175°
2026-05-04 19:32 30.49949 31.31394 6719 ft 280 kts 175°
2026-05-04 19:32 30.48034 31.31750 6402 ft 278 kts 173°
2026-05-04 19:32 30.46209 31.32507 6073 ft 281 kts 151°
2026-05-04 19:33 30.44674 31.33916 5720 ft 283 kts 138°
2026-05-04 19:33 30.43264 31.35497 5385 ft 282 kts 136°
2026-05-04 19:33 30.41875 31.37090 5054 ft 280 kts 136°
2026-05-04 19:33 30.40490 31.38665 4731 ft 279 kts 136°
2026-05-04 19:34 30.39102 31.40228 4409 ft 277 kts 136°
2026-05-04 19:34 30.37719 31.41771 4094 ft 276 kts 136°
2026-05-04 19:34 30.36335 31.43306 3775 ft 275 kts 136°
2026-05-04 19:34 30.34981 31.44808 3611 ft 261 kts 136°
2026-05-04 19:35 30.33723 31.46201 3542 ft 240 kts 136°
2026-05-04 19:35 30.32567 31.47477 3483 ft 219 kts 136°
2026-05-04 19:35 30.31484 31.48674 3552 ft 214 kts 136°
2026-05-04 19:35 30.30406 31.49865 3539 ft 213 kts 136°
2026-05-04 19:36 30.29330 31.51052 3450 ft 214 kts 135°
2026-05-04 19:36 30.28251 31.52240 3343 ft 214 kts 135°
2026-05-04 19:36 30.27172 31.53428 3212 ft 214 kts 135°
2026-05-04 19:36 30.26109 31.54602 3067 ft 207 kts 135°
2026-05-04 19:37 30.25078 31.55739 2815 ft 201 kts 135°
2026-05-04 19:37 30.24085 31.56834 2553 ft 196 kts 135°
2026-05-04 19:37 30.23102 31.57906 2282 ft 191 kts 140°
2026-05-04 19:37 30.21940 31.58414 2097 ft 168 kts 186°
2026-05-04 19:38 30.20956 31.57909 2084 ft 150 kts 235°
2026-05-04 19:38 30.20402 31.56918 2116 ft 146 kts 249°
2026-05-04 19:38 30.19892 31.55905 2110 ft 146 kts 246°
2026-05-04 19:38 30.19315 31.54924 2104 ft 147 kts 242°
2026-05-04 19:39 30.18726 31.54017 2072 ft 135 kts 241°
2026-05-04 19:39 30.18147 31.53181 2078 ft 132 kts 239°
2026-05-04 19:39 30.17559 31.52367 1995 ft 132 kts 238°
2026-05-04 19:39 30.16961 31.51562 1821 ft 131 kts 239°
2026-05-04 19:40 30.16362 31.50764 1658 ft 131 kts 238°
2026-05-04 19:40 30.15762 31.49968 1490 ft 131 kts 237°
2026-05-04 19:40 30.15171 31.49183 1319 ft 130 kts 237°
2026-05-04 19:40 30.14571 31.48382 1149 ft 130 kts 237°
2026-05-04 19:41 30.13967 31.47604 978 ft 130 kts 236°
2026-05-04 19:41 30.13381 31.46813 807 ft 129 kts 239°
2026-05-04 19:41 30.12798 31.46022 641 ft 130 kts 236°
2026-05-04 19:41 30.12207 31.45226 465 ft 128 kts 236°
2026-05-04 19:42 30.11639 31.44459 387 ft 115 kts 232°
2026-05-04 19:42 30.11220 31.43899 386 ft 66 kts 229°
2026-05-04 19:42 30.11013 31.43630 386 ft 33 kts 229°
2026-05-04 19:42 30.10897 31.43413 386 ft 29 kts 249°
2026-05-04 19:43 30.10855 31.43267 386 ft 9 kts 252°
2026-05-04 19:43 30.10852 31.43255 386 ft 0 kts 252°
2026-05-04 19:43 30.10850 31.43250 386 ft 2 kts 253°
2026-05-04 19:44 30.10835 31.43185 386 ft 9 kts 255°
2026-05-04 19:44 30.10817 31.43105 386 ft 10 kts 256°
2026-05-04 19:44 30.10784 31.43025 386 ft 11 kts 234°
2026-05-04 19:44 30.10723 31.42939 386 ft 16 kts 229°
2026-05-04 19:45 30.10647 31.42838 386 ft 16 kts 229°
2026-05-04 19:45 30.10570 31.42736 386 ft 16 kts 229°
2026-05-04 19:45 30.10493 31.42632 386 ft 17 kts 229°
2026-05-04 19:45 30.10415 31.42527 386 ft 17 kts 228°
2026-05-04 19:46 30.10336 31.42422 386 ft 17 kts 230°
2026-05-04 19:46 30.10257 31.42317 386 ft 17 kts 229°
2026-05-04 19:46 30.10178 31.42211 385 ft 17 kts 230°
2026-05-04 19:46 30.10102 31.42107 385 ft 14 kts 228°
2026-05-04 19:47 30.10043 31.42025 385 ft 11 kts 239°
2026-05-04 19:47 30.10038 31.41934 385 ft 12 kts 279°
2026-05-04 19:47 30.10014 31.41841 385 ft 12 kts 233°
2026-05-04 19:47 30.09962 31.41755 385 ft 13 kts 238°
2026-05-04 19:48 30.09925 31.41656 385 ft 13 kts 254°
2026-05-04 19:48 30.09906 31.41546 385 ft 14 kts 259°
2026-05-04 19:48 30.09888 31.41430 385 ft 14 kts 259°
2026-05-04 19:48 30.09868 31.41311 385 ft 15 kts 259°
2026-05-04 19:49 30.09847 31.41188 385 ft 15 kts 259°
2026-05-04 19:49 30.09827 31.41061 385 ft 15 kts 259°
2026-05-04 19:49 30.09806 31.40939 385 ft 15 kts 259°
2026-05-04 19:49 30.09788 31.40812 385 ft 16 kts 268°
2026-05-04 19:50 30.09842 31.40704 385 ft 16 kts 319°
2026-05-04 19:50 30.09928 31.40619 385 ft 16 kts 319°
2026-05-04 19:50 30.10014 31.40534 385 ft 16 kts 319°
2026-05-04 19:50 30.10100 31.40449 385 ft 16 kts 319°
2026-05-04 19:51 30.10185 31.40365 385 ft 16 kts 319°
2026-05-04 19:51 30.10270 31.40280 385 ft 16 kts 319°
2026-05-04 19:51 30.10354 31.40197 385 ft 11 kts 318°
2026-05-04 19:51 30.10366 31.40185 385 ft 0 kts 319°
2026-05-04 19:52 30.10370 31.40180 385 ft 1 kts 319°
2026-05-04 19:52 30.10395 31.40156 385 ft 11 kts 320°
2026-05-04 19:52 30.10479 31.40117 385 ft 14 kts 20°
2026-05-04 19:52 30.10549 31.40197 385 ft 14 kts 49°
2026-05-04 19:53 30.10615 31.40285 385 ft 10 kts 49°
2026-05-04 19:53 30.10618 31.40288 385 ft 0 kts 48°
2026-05-04 19:55 30.10618 31.40289 385 ft 0 kts 48°
2026-05-04 19:56 30.10621 31.40293 385 ft 0 kts 47°